Temp
20 20 21 21 22 22 22 22 22 23 23 23 24 25 25 25 25 25 23 24 24 26 26 27 26 25 25 22 20 19 17 18 18 17 15 14 14 14 14 12 12 12 13 13 13
20 20 21 21 22 22 22 23 23 23 23 24 24 25 25 25 25 24 25 25 26 27 27 26 25 25 21 21 19 17 16 19 16 15 14 13 13 13 12 12 11 12 13 14 13
20 20 21 22 22 22 23 23 23 23 23 24 25 25 25 25 24 24 25 26 27 27 27 26 26 23 21 19 18 17 17 16 14 14 14 13 12 13 12 11 12 12 12 11 11
20 20 21 22 22 23 23 23 23 23 24 25 25 25 25 25 25 25 25 26 27 27 27 26 24 22 19 19 17 16 15 15 14 14 14 13 13 11 11 12 12 11 10 10 9
20 21 21 22 23 23 23 23 24 24 24 25 25 26 25 21 23 24 25 26 27 27 26 25 24 21 20 18 18 15 15 14 13 13 12 13 11 11 11 11 11 11 10 9 9
20 21 22 22 23 23 23 24 24 24 25 25 26 26 25 21 24 24 25 26 26 26 24 23 23 20 18 16 16 15 14 14 14 13 13 12 11 12 12 11 9 9 8 8 9
21 21 22 22 23 23 24 24 24 25 25 26 26 26 21 23 24 24 26 25 25 25 22 23 24 22 19 17 16 15 13 13 13 13 13 12 11 11 11 9 8 7 6 6 9
21 21 22 23 23 23 24 25 25 26 26 26 26 26 23 24 24 24 26 26 25 26 25 23 24 18 17 17 17 16 15 15 14 13 13 13 10 11 9 8 8 7 5 5 7
21 22 22 23 23 24 24 25 25 26 26 26 26 24 23 25 24 23 23 23 25 24 24 23 21 16 17 17 16 16 17 17 15 14 13 12 10 10 9 8 8 6 4 5 5
21 22 22 23 23 24 25 26 25 26 26 26 25 23 22 21 23 23 23 23 22 22 20 17 14 14 13 14 17 18 17 17 16 13 11 10 9 9 9 8 7 5 4 5 6
21 22 23 23 24 24 25 25 23 20 22 21 22 21 21 22 23 22 21 23 20 17 18 15 15 14 14 14 15 16 16 17 15 13 10 9 9 9 10 8 6 7 5 5 5
21 22 23 23 24 24 24 20 21 22 20 22 22 22 22 21 20 20 22 20 17 17 17 15 14 15 15 15 16 15 15 15 13 12 10 9 9 10 9 9 7 5 5 5 5
21 22 23 24 24 23 23 21 22 23 19 22 22 22 21 22 19 18 18 18 16 16 14 14 16 15 16 14 14 15 15 14 14 10 10 9 9 8 8 8 7 6 4 5 6
21 21 23 24 24 23 22 22 22 23 18 21 22 22 21 20 19 19 18 19 16 15 15 13 15 15 15 15 14 14 14 13 13 11 11 10 9 7 6 6 6 5 5 5 6
20 21 22 24 23 22 22 22 22 22 22 22 22 23 20 20 20 19 18 17 15 14 17 16 14 13 14 15 13 14 12 13 12 12 10 10 9 7 5 6 6 5 5 5 5
20 21 22 23 23 22 22 22 22 21 22 22 22 21 21 18 18 17 14 15 16 15 14 15 15 14 14 13 14 13 14 12 10 10 12 10 9 4 5 5 5 5 5 5 6
20 21 22 22 22 22 22 21 20 21 22 22 22 21 19 18 17 15 13 11 12 17 14 15 13 13 12 12 13 10 10 12 15 12 12 8 8 4 6 5 4 4 5 5 5
20 20 21 21 22 22 22 20 23 20 20 21 21 20 20 19 16 14 14 12 11 12 11 14 16 12 12 12 11 10 9 10 15 12 10 9 8 6 7 5 4 5 5 5 5
20 20 21 20 21 22 17 19 19 19 20 20 21 21 20 19 17 14 12 12 12 11 15 13 14 14 12 11 11 12 9 10 9 8 7 7 7 7 6 5 4 4 5 4 4
20 20 20 20 21 21 16 18 17 17 19 20 21 20 20 19 18 16 14 12 12 12 11 13 14 12 13 12 10 10 10 10 7 6 9 7 6 5 4 4 4 4 4 4 4
20 16 20 20 21 15 18 16 17 17 18 20 19 19 18 18 16 15 14 11 11 11 12 12 12 13 12 9 9 8 8 6 5 5 4 3 7 4 3 3 3 3 3 4 4
17 17 20 20 16 9 14 16 17 17 17 18 17 18 18 16 16 15 15 13 11 11 13 11 8 9 10 10 9 9 8 5 3 5 1 -1 4 6 3 3 3 3 3 3 4
14 15 19 19 16 12 15 15 15 17 17 18 17 17 16 15 17 14 13 11 11 11 12 11 10 10 12 10 9 9 8 4 2 0 -0 0 5 5 3 3 3 2 3 3 3
13 16 14 10 11 13 14 16 16 16 16 17 16 16 15 15 12 12 12 11 11 11 12 10 8 10 10 12 9 9 8 6 4 -1 -1 2 4 4 3 2 2 2 2 3 3
10 13 12 14 14 13 14 14 15 16 16 16 17 17 16 13 15 13 12 11 12 13 10 9 11 11 10 10 10 10 9 6 0 5 1 5 4 3 2 1 1 1 2 3 3
12 12 8 6 12 14 11 14 15 14 15 17 16 14 15 15 16 12 11 11 13 11 10 7 9 11 10 10 9 9 9 7 6 6 3 4 4 4 2 1 2 1 2 2 2
13 12 12 8 12 13 13 13 14 12 12 11 13 12 12 12 9 7 7 6 9 10 9 8 7 6 11 9 9 9 8 8 8 7 6 5 4 2 2 2 1 0 1 1 2
Height
810 809 808 808 807 808 808 809 809 809 809 808 807 806 805 803 802 801 799 803 797 792 790 787 787 786 787 791 794 799 833 848 849 853 863 863 868 871 875 876 875 876 878 878 876
811 810 809 808 808 809 810 810 810 810 809 808 807 806 804 803 802 802 802 798 794 791 789 788 788 787 797 801 806 818 843 842 847 851 862 866 868 874 880 881 882 879 878 877 875
812 811 810 810 810 811 811 811 811 810 809 808 807 805 804 803 804 805 801 796 793 790 788 788 789 792 806 809 819 828 844 848 858 857 860 869 873 875 880 886 884 884 883 880 877
813 812 811 811 812 812 813 812 811 811 809 808 806 804 804 804 822 806 802 798 794 790 788 789 791 803 819 823 826 841 850 848 858 860 863 870 874 882 883 886 885 886 884 881 878
815 813 812 813 813 814 813 813 812 811 810 808 805 803 804 810 814 808 803 800 796 791 789 791 798 809 823 827 831 846 854 857 861 865 871 873 880 883 889 888 887 885 884 883 880
816 815 814 814 814 814 814 813 813 812 810 809 807 805 806 823 812 808 804 802 798 795 794 794 799 805 823 834 838 848 857 864 867 870 873 877 884 881 890 890 888 888 887 883 880
818 817 816 816 815 814 814 813 812 811 810 809 808 807 810 818 812 808 804 804 803 800 799 800 800 805 822 840 846 852 865 869 872 871 877 872 889 891 892 890 893 892 890 886 882
819 818 817 817 816 815 814 813 811 810 810 809 808 808 816 814 812 807 805 806 806 804 804 805 804 812 829 839 846 856 861 870 870 870 872 873 898 892 895 893 897 895 893 888 882
819 818 818 817 817 816 814 813 811 810 810 809 809 809 820 814 812 811 809 809 809 808 808 808 810 834 840 848 858 861 865 861 870 868 872 876 895 895 896 896 899 898 894 887 881
819 818 817 817 816 815 814 813 812 811 811 811 811 817 819 824 818 814 812 811 810 810 814 821 836 854 863 864 868 861 861 862 865 873 880 888 897 898 898 898 899 899 894 888 879
819 818 817 817 816 815 814 813 816 821 819 828 829 828 825 822 819 817 814 812 814 824 841 844 856 873 869 866 863 859 861 862 868 877 887 892 899 899 896 899 899 895 893 887 881
819 818 817 817 817 814 814 815 819 821 835 828 828 827 825 823 826 820 817 825 834 847 844 856 871 867 864 863 858 861 865 870 876 879 886 897 898 897 898 899 901 900 895 889 882
818 817 817 817 817 816 815 818 819 821 834 832 830 830 830 828 838 836 829 835 849 856 861 868 872 865 861 867 866 863 866 872 873 885 890 896 901 901 901 901 900 898 897 889 881
818 817 817 817 820 818 819 820 820 821 853 847 837 833 832 831 842 837 836 839 851 864 865 874 870 869 867 867 871 871 864 869 872 879 888 891 897 908 912 907 901 900 892 888 880
818 817 817 818 818 819 821 820 820 822 874 845 839 831 833 840 842 843 843 842 861 867 861 876 876 875 873 872 872 871 869 866 869 877 886 892 902 916 915 910 904 901 895 887 882
818 818 817 818 818 820 820 820 822 852 868 848 841 843 843 847 850 849 853 850 858 865 871 876 872 876 877 873 870 868 864 869 879 884 884 889 897 933 923 917 908 900 896 889 880
817 818 818 817 818 819 820 822 852 865 847 852 850 847 853 858 860 864 874 881 885 872 885 879 882 881 880 879 873 881 881 883 871 883 880 900 903 932 918 915 912 904 896 889 881
817 817 817 817 818 819 821 837 853 854 853 846 848 851 858 857 869 875 878 890 889 888 896 891 882 891 887 890 892 894 899 908 881 893 901 899 903 916 912 914 910 903 897 889 882
816 817 818 817 818 820 829 856 855 852 846 850 850 857 861 859 865 878 889 892 891 892 886 892 893 888 891 893 893 892 913 907 911 918 928 910 914 911 912 910 909 902 896 889 882
815 817 818 818 819 820 841 852 853 849 847 846 853 856 862 865 867 875 884 893 892 892 893 891 895 894 892 891 897 901 908 909 928 944 916 914 919 925 919 914 908 902 895 890 883
815 821 819 818 819 829 848 855 852 848 848 848 854 859 862 865 873 881 888 896 894 893 892 893 895 896 898 914 914 916 918 930 938 942 961 958 918 925 926 920 913 907 900 891 884
815 828 818 818 835 858 855 849 846 849 848 850 853 855 861 868 875 881 882 890 894 894 892 898 911 917 912 912 913 916 922 935 953 946 968 982 940 912 922 918 911 907 902 896 888
819 822 818 818 845 859 852 852 851 849 853 851 855 856 862 871 874 883 888 893 892 893 893 895 908 916 905 914 913 915 921 936 948 963 973 980 930 915 917 915 911 907 900 894 887
819 830 824 826 835 841 850 852 855 852 852 852 856 857 864 872 880 886 888 892 892 893 891 898 910 905 914 898 915 916 919 929 939 979 978 952 930 918 922 918 912 908 903 896 888
820 828 830 838 838 839 842 851 855 854 852 852 856 857 863 880 876 884 889 892 892 890 896 900 902 902 907 908 908 907 912 926 956 933 956 925 931 925 924 921 915 911 903 895 888
820 826 833 848 837 838 848 849 851 857 855 854 857 865 863 868 867 881 886 889 884 893 896 905 910 903 905 908 909 909 909 918 925 926 935 928 926 918 920 917 913 910 903 896 889
814 816 818 847 839 841 844 846 846 852 861 864 861 868 873 876 879 884 887 891 889 893 901 906 916 924 905 911 911 912 907 909 912 916 918 924 920 922 920 914 913 911 906 899 891
Wind_Speed
7 5 4 3 5 7 7 7 6 5 5 5 6 6 6 6 6 17 10 17 20 16 12 10 4 6 3 4 8 3 5 3 4 5 6 7 5 2 3 8 6 4 3 2 11
7 5 4 4 6 7 7 7 5 5 5 6 6 6 7 6 1 11 20 21 16 14 6 6 7 8 4 5 5 5 4 2 4 4 5 5 6 5 5 6 6 4 5 12 17
7 6 4 5 6 7 7 4 5 6 6 6 5 5 7 1 3 5 24 20 16 14 4 1 3 5 6 5 6 4 4 4 8 13 9 6 5 3 8 6 2 3 5 10 16
6 6 5 6 7 7 4 3 5 7 7 7 7 5 5 2 1 11 23 18 13 9 3 5 5 5 5 5 5 7 9 6 7 6 6 4 4 7 7 4 4 6 6 16 17
6 6 6 6 6 4 1 3 5 6 7 9 9 3 1 6 3 19 19 15 11 15 11 4 5 4 5 5 4 7 4 7 10 12 8 12 8 8 4 5 9 16 19 12 15
5 6 6 5 4 2 2 3 6 6 6 7 11 6 4 6 10 20 15 14 19 17 15 9 5 7 7 6 6 5 15 13 11 12 6 10 3 4 3 3 12 11 9 14 18
4 5 4 4 2 2 3 5 6 6 4 4 3 3 9 2 13 20 11 10 16 18 9 13 4 6 5 6 4 10 7 8 3 3 6 11 8 3 4 8 10 10 9 11 19
2 4 4 3 3 3 4 6 9 5 2 4 3 4 3 7 12 22 12 8 16 16 16 15 21 10 6 8 4 5 4 3 5 5 4 3 2 3 4 11 9 9 9 9 13
2 2 3 2 3 5 3 5 10 4 4 3 4 5 2 8 12 22 14 6 6 12 21 15 14 6 6 3 4 5 1 2 3 2 4 3 3 5 7 9 7 8 9 9 9
3 1 1 0 3 7 4 5 15 4 4 3 10 5 8 5 9 18 10 12 7 4 6 11 7 5 5 6 2 3 0 2 3 2 7 9 6 5 4 6 4 7 9 10 15
4 2 2 2 5 9 5 2 5 7 15 4 0 3 4 11 3 19 18 5 8 9 5 7 10 5 4 3 6 2 3 2 3 4 6 5 7 5 3 4 10 14 13 13 15
4 3 2 2 5 9 2 6 2 6 6 3 2 2 3 3 6 22 21 7 8 4 3 6 6 6 5 8 2 5 3 3 3 3 6 4 4 2 5 5 5 8 12 14 13
5 3 2 1 3 6 10 7 6 4 6 3 2 3 3 7 5 10 9 4 7 10 9 8 4 7 4 4 8 3 4 3 5 5 7 6 1 3 4 4 8 11 8 12 15
4 2 2 2 1 2 4 5 2 2 5 8 5 5 5 2 5 7 10 2 6 4 4 7 5 6 5 3 3 3 4 3 7 5 3 2 4 4 7 8 13 11 15 15 16
3 1 1 1 4 2 4 2 2 2 3 5 5 1 5 7 1 11 17 10 6 4 3 1 7 7 6 4 3 7 8 1 4 5 4 3 2 2 5 11 17 14 15 16 15
2 1 2 3 3 3 2 1 1 5 1 1 3 4 4 7 5 6 8 10 3 6 8 2 2 4 3 6 2 11 2 5 5 3 1 2 4 2 5 11 15 14 15 16 17
2 1 3 4 2 2 2 3 4 4 2 1 1 4 4 6 6 7 5 8 5 3 6 5 4 6 4 6 6 10 6 3 3 3 5 3 3 4 5 8 8 15 16 16 18
2 2 2 3 3 4 3 5 2 3 4 1 3 3 3 3 4 7 3 5 6 4 4 3 4 7 9 3 3 5 4 4 4 3 5 3 2 4 2 7 7 10 11 14 17
1 3 2 3 4 4 5 3 6 5 4 6 2 3 1 1 4 5 4 1 1 4 3 3 2 3 5 4 2 5 6 1 1 1 2 2 2 1 12 16 13 15 15 17 18
4 2 2 4 3 4 5 3 3 1 1 1 3 1 3 2 2 3 1 2 3 2 1 2 3 3 4 2 6 7 1 2 3 3 5 3 1 4 13 16 15 17 18 19 19
3 3 2 3 3 5 3 4 3 1 1 1 4 3 2 3 3 2 1 1 2 4 2 1 2 2 3 6 2 5 4 6 4 2 3 3 3 5 6 11 14 15 15 18 20
4 2 1 4 4 2 3 4 2 2 3 2 4 3 3 3 3 2 2 2 1 1 2 1 4 3 1 1 3 2 3 3 4 5 2 3 5 3 5 7 11 14 15 17 17
3 2 2 2 4 1 1 3 2 2 2 2 2 2 3 3 3 2 3 2 2 2 2 2 2 2 0 2 2 2 2 4 5 3 4 3 5 2 6 13 11 12 15 15 17
3 2 3 4 2 8 6 3 3 1 2 3 4 3 4 3 5 5 3 1 1 2 3 2 3 4 5 3 3 2 3 3 4 3 3 6 8 10 9 12 13 12 14 16 16
3 2 1 2 1 5 4 5 5 4 1 1 2 1 5 4 2 3 2 2 1 2 2 3 3 2 1 2 1 2 4 6 4 4 5 4 5 7 7 9 8 8 15 17 18
4 4 3 1 3 7 2 6 6 3 3 3 4 2 2 4 2 8 6 4 3 2 2 2 3 2 1 1 2 3 5 6 5 3 7 5 7 2 6 7 8 9 15 15 16
2 3 4 3 2 4 5 7 8 8 3 3 7 5 4 1 3 3 5 7 5 5 3 3 4 3 2 2 4 6 5 5 2 3 4 3 5 5 7 11 9 9 13 14 15
Wind_Direction
18 15 28 73 114 124 120 116 92 71 40 11 4 355 346 335 330 33 34 338 335 335 327 339 30 52 78 58 35 83 72 140 158 139 142 174 120 5 40 72 39 43 86 333 359
21 23 39 100 122 128 120 107 71 24 6 359 352 342 336 343 59 15 356 355 359 346 321 8 357 26 52 32 26 62 75 108 353 89 107 75 87 100 76 44 36 43 19 14 12
31 37 66 115 128 131 126 88 22 11 6 358 355 343 331 298 58 315 354 357 358 345 320 41 48 52 58 31 5 30 99 96 60 95 100 88 69 83 122 40 22 63 357 4 5
41 54 79 117 131 138 131 29 18 4 3 11 344 311 33 101 34 339 349 355 4 12 80 91 51 55 64 58 17 93 34 95 173 111 88 79 94 66 68 132 95 49 31 18 3
51 66 82 114 130 140 81 18 9 9 27 21 14 75 97 44 329 340 346 9 34 42 55 84 66 106 86 99 91 80 110 51 89 85 81 99 86 97 65 69 49 40 25 2 351
61 70 84 103 109 108 22 23 3 9 13 28 47 63 79 65 344 348 347 21 38 38 46 34 95 104 91 47 54 83 99 104 94 108 115 109 99 99 26 11 39 30 360 351 352
61 66 74 83 68 60 30 7 2 335 338 357 355 90 67 146 340 357 16 28 33 51 52 42 113 78 112 97 118 120 86 88 141 137 137 108 36 64 34 59 36 8 351 345 341
42 57 57 71 72 42 11 60 20 13 31 0 77 85 84 356 360 16 27 58 59 82 59 67 82 86 65 122 86 73 91 113 212 186 192 42 124 48 41 61 22 351 334 320 316
334 41 48 68 62 15 340 24 14 94 60 49 43 81 3 352 3 6 11 3 63 66 54 50 66 82 32 62 36 22 304 137 135 212 127 58 151 83 51 55 9 330 316 319 323
300 345 6 348 16 359 342 316 57 89 35 36 39 42 9 312 330 352 15 45 43 17 24 31 49 66 27 36 269 256 164 122 176 155 55 93 116 103 67 62 341 313 335 331 343
294 291 315 280 333 343 347 128 26 7 30 81 13 115 305 326 355 3 358 19 22 50 56 17 61 39 307 300 245 202 127 96 84 137 82 118 122 123 187 26 7 358 345 336 325
294 274 288 273 340 339 36 83 125 157 85 40 58 24 5 354 23 353 15 64 39 53 334 35 41 327 276 356 9 137 117 62 50 83 86 159 135 178 22 45 349 325 336 327 321
288 256 250 243 339 37 96 98 95 140 90 358 26 33 341 38 56 335 19 94 76 60 47 94 283 302 26 7 22 346 142 158 214 106 50 118 6 359 336 5 342 350 315 329 338
279 254 247 253 145 86 75 103 92 160 77 325 342 1 3 74 56 26 9 91 43 140 96 78 328 8 8 52 40 315 101 285 177 142 193 204 280 357 345 334 347 335 348 339 337
274 276 224 205 140 119 141 121 45 92 64 335 337 333 26 77 281 4 23 29 74 15 101 291 354 2 20 327 333 253 325 205 126 144 103 213 9 277 347 344 342 339 336 339 335
267 252 193 162 119 138 168 176 81 48 199 344 345 4 42 19 30 336 29 35 81 63 40 75 9 54 284 307 273 303 47 51 60 88 341 232 166 355 2 327 331 338 340 333 337
261 247 191 168 147 161 153 73 44 120 2 208 73 54 74 16 34 29 42 28 43 43 19 8 11 329 20 350 1 12 40 347 353 5 240 120 52 220 306 314 317 326 331 337 345
276 200 150 147 144 144 117 53 148 159 209 169 111 85 84 21 29 19 63 37 24 39 73 42 10 12 337 79 284 11 64 115 268 298 295 320 216 188 246 304 309 319 329 335 345
214 172 146 125 132 140 78 81 203 202 172 143 78 89 33 67 111 78 48 61 10 20 100 109 15 340 54 30 11 335 38 259 89 323 350 276 6 122 357 346 341 334 343 343 346
152 153 92 132 119 107 78 200 185 276 129 93 137 129 164 343 74 66 19 323 348 57 7 181 91 7 344 29 26 87 24 21 16 19 307 307 337 269 335 332 340 346 346 343 344
136 75 141 142 118 52 143 195 179 236 309 92 157 118 121 123 92 85 75 310 14 334 72 17 72 315 32 20 302 349 20 46 109 98 176 312 285 220 287 318 334 343 341 341 342
110 88 168 171 58 34 124 145 164 138 21 64 90 98 119 95 93 111 116 77 301 290 84 6 113 76 123 293 101 96 126 111 112 276 81 141 279 202 248 315 340 338 339 339 340
116 169 45 196 137 94 176 69 73 116 54 101 102 69 60 111 103 100 117 148 49 106 139 160 43 48 257 305 351 89 93 101 100 87 205 120 276 234 350 347 338 334 338 336 340
98 93 341 46 38 133 141 152 112 34 98 92 121 104 106 94 26 150 131 119 81 110 129 107 98 148 187 207 140 184 185 129 111 107 197 226 289 311 338 328 332 335 335 336 343
34 208 206 191 285 117 101 139 137 153 64 80 81 175 147 117 100 132 124 111 80 114 77 97 112 106 76 118 190 225 198 180 163 185 157 249 257 289 311 313 310 310 336 343 345
137 137 33 65 85 105 105 194 152 147 135 203 154 91 55 137 175 186 140 189 178 95 80 12 151 111 311 282 280 280 247 202 211 195 259 274 290 228 299 306 330 337 336 338 340
141 110 103 298 87 102 196 173 181 134 47 27 146 109 72 26 120 91 91 89 118 136 129 84 124 102 240 317 319 305 228 188 176 184 190 245 243 331 322 327 331 324 332 332 337